User: anonymous   Login
Location: Unspecified
(0.0000°N, 0.0000°E)
Time: 08:13:28
(UTC+00:00)
Language:

Picosat 3 - Orbit

View from above orbital plane
View from above orbital plane
View from above satellite
View from above satellite

Ground track
Ground track

The orbit data is extracted from the following two-line orbital elements,

1 26091U 00004J   19345.78255322  .00000244  00000-0  80279-4 0  9998
2 26091 100.1878 273.4192 0029319   1.7790 358.3496 14.49138674 45061
Epoch (UTC): 11 December 2019 18:46:52
Eccentricity: 0.0029319
inclination: 100.1878°
perigee height: 707 km
apogee height: 749 km
right ascension of ascending node: 273.4192°
argument of perigee: 1.7790°
revolutions per day: 14.49138674
mean anomaly at epoch: 358.3496°
orbit number at epoch: 4506

The dashed part of the orbit path shows where the satellite is in the earth's shadow,  

DLR